DTGRO EDDN-EDMO

Flight info

Callsign DTGRO
Flight time 1h 1m
Altitude 7000
Route VFR
Aircraft C172/L-SFG/C

Departure

Time 2026-04-27 09:51
Airport Nuremberg Airport (EDDN)

Arrival

Time 2026-04-27 10:52
Airport Oberpfaffenhofen Airport (EDMO)
Time Latitude Longitude Altitude Speed Heading
2026-04-27 09:32 49.49480 11.06892 1022 ft 0 kts 277°
2026-04-27 09:47 49.49482 11.06887 1022 ft 2 kts 310°
2026-04-27 09:47 49.49507 11.06902 1023 ft 8 kts 43°
2026-04-27 09:48 49.49520 11.07022 1023 ft 16 kts 96°
2026-04-27 09:48 49.49538 11.07195 1025 ft 18 kts
2026-04-27 09:48 49.49634 11.07278 1030 ft 17 kts 90°
2026-04-27 09:48 49.49616 11.07500 1031 ft 25 kts 101°
2026-04-27 09:49 49.49607 11.07743 1034 ft 18 kts 45°
2026-04-27 09:49 49.49704 11.07744 1039 ft 16 kts 332°
2026-04-27 09:49 49.49796 11.07677 1040 ft 13 kts 343°
2026-04-27 09:49 49.49888 11.07603 1041 ft 18 kts 292°
2026-04-27 09:50 49.49929 11.07228 1035 ft 58 kts 279°
2026-04-27 09:50 49.49982 11.06541 1246 ft 60 kts 282°
2026-04-27 09:50 49.49982 11.05829 1383 ft 77 kts 242°
2026-04-27 09:50 49.49459 11.05523 1562 ft 93 kts 166°
2026-04-27 09:51 49.48875 11.06018 1778 ft 98 kts 150°
2026-04-27 09:51 49.48371 11.06657 2062 ft 92 kts 111°
2026-04-27 09:51 49.48308 11.07598 2322 ft 90 kts 91°
2026-04-27 09:51 49.48296 11.08560 2572 ft 86 kts 90°
2026-04-27 09:52 49.48329 11.09454 2809 ft 86 kts 85°
2026-04-27 09:52 49.48282 11.10395 3040 ft 94 kts 120°
2026-04-27 09:52 49.47680 11.10856 3228 ft 102 kts 164°
2026-04-27 09:52 49.46977 11.11179 3396 ft 113 kts 159°
2026-04-27 09:53 49.46215 11.11658 3444 ft 122 kts 153°
2026-04-27 09:53 49.45440 11.12268 3429 ft 124 kts 150°
2026-04-27 09:53 49.44742 11.13027 3469 ft 123 kts 140°
2026-04-27 09:53 49.44103 11.13882 3347 ft 124 kts 135°
2026-04-27 09:54 49.43483 11.14803 3241 ft 123 kts 135°
2026-04-27 09:54 49.42863 11.15721 3137 ft 123 kts 135°
2026-04-27 09:54 49.42253 11.16604 3067 ft 123 kts 136°
2026-04-27 09:54 49.41604 11.17453 3081 ft 113 kts 141°
2026-04-27 09:55 49.41065 11.18247 3237 ft 104 kts 132°
2026-04-27 09:55 49.40581 11.19053 3380 ft 105 kts 129°
2026-04-27 09:55 49.39504 11.20716 3693 ft 113 kts 148°
2026-04-27 09:56 49.38818 11.21310 3777 ft 115 kts 155°
2026-04-27 09:56 49.38002 11.21440 3872 ft 123 kts 184°
2026-04-27 09:56 49.37206 11.21271 4268 ft 110 kts 187°
2026-04-27 09:56 49.36401 11.21297 4287 ft 123 kts 172°
2026-04-27 09:57 49.35605 11.21435 4604 ft 105 kts 179°
2026-04-27 09:57 49.34891 11.21428 4848 ft 99 kts 178°
2026-04-27 09:57 49.34198 11.21484 4995 ft 102 kts 176°
2026-04-27 09:57 49.33509 11.21696 5170 ft 99 kts 171°
2026-04-27 09:58 49.32841 11.21771 5375 ft 93 kts 177°
2026-04-27 09:58 49.32209 11.21830 5561 ft 90 kts 179°
2026-04-27 09:58 49.31565 11.21861 5690 ft 95 kts 179°
2026-04-27 09:58 49.30841 11.21925 5731 ft 107 kts 178°
2026-04-27 09:59 49.30143 11.22074 5939 ft 101 kts 169°
2026-04-27 09:59 49.29426 11.22398 6043 ft 105 kts 161°
2026-04-27 09:59 49.28761 11.22821 6210 ft 103 kts 155°
2026-04-27 09:59 49.28093 11.23242 6374 ft 105 kts 168°
2026-04-27 10:00 49.27357 11.23527 6443 ft 114 kts 164°
2026-04-27 10:00 49.26645 11.24013 6600 ft 110 kts 153°
2026-04-27 10:00 49.25969 11.24612 6660 ft 115 kts 155°
2026-04-27 10:00 49.25193 11.24890 6922 ft 111 kts 170°
2026-04-27 10:01 49.24469 11.25172 7205 ft 106 kts 162°
2026-04-27 10:01 49.23729 11.25573 7174 ft 117 kts 164°
2026-04-27 10:01 49.22955 11.25983 7302 ft 114 kts 164°
2026-04-27 10:01 49.22184 11.26249 7363 ft 117 kts 171°
2026-04-27 10:02 49.21343 11.26568 7384 ft 125 kts 166°
2026-04-27 10:02 49.20506 11.26806 7434 ft 126 kts 176°
2026-04-27 10:02 49.19599 11.26818 7450 ft 129 kts 186°
2026-04-27 10:02 49.18737 11.26704 7520 ft 125 kts 187°
2026-04-27 10:03 49.17833 11.26707 7436 ft 132 kts 179°
2026-04-27 10:03 49.16885 11.26809 7346 ft 137 kts 179°
2026-04-27 10:03 49.15963 11.26939 7467 ft 126 kts 172°
2026-04-27 10:03 49.15065 11.27174 7426 ft 132 kts 169°
2026-04-27 10:04 49.14202 11.27485 7537 ft 127 kts 165°
2026-04-27 10:04 49.13382 11.28057 7480 ft 129 kts 166°
2026-04-27 10:04 49.12516 11.28397 7464 ft 129 kts 171°
2026-04-27 10:04 49.11648 11.28707 7453 ft 128 kts 166°
2026-04-27 10:05 49.10802 11.29175 7411 ft 129 kts 165°
2026-04-27 10:05 49.09921 11.29416 7390 ft 128 kts 176°
2026-04-27 10:05 49.09042 11.29581 7375 ft 128 kts 173°
2026-04-27 10:05 49.08155 11.29833 7409 ft 129 kts 170°
2026-04-27 10:06 49.07286 11.30137 7411 ft 132 kts 165°
2026-04-27 10:06 49.06414 11.30552 7432 ft 131 kts 160°
2026-04-27 10:06 49.05572 11.31063 7441 ft 129 kts 161°
2026-04-27 10:06 49.04711 11.31429 7454 ft 128 kts 170°
2026-04-27 10:07 49.03836 11.31742 7414 ft 130 kts 167°
2026-04-27 10:07 49.02966 11.32076 7381 ft 130 kts 179°
2026-04-27 10:07 49.02052 11.32100 7328 ft 131 kts 175°
2026-04-27 10:07 49.01128 11.32250 7337 ft 132 kts 178°
2026-04-27 10:08 49.00232 11.32361 7283 ft 135 kts 177°
2026-04-27 10:08 48.99297 11.32529 7243 ft 136 kts 175°
2026-04-27 10:08 48.98362 11.32674 7248 ft 135 kts 179°
2026-04-27 10:08 48.97420 11.32763 7184 ft 135 kts 179°
2026-04-27 10:09 48.96497 11.32897 7220 ft 132 kts 177°
2026-04-27 10:09 48.95563 11.33000 7246 ft 135 kts 178°
2026-04-27 10:09 48.94626 11.33122 7268 ft 136 kts 176°
2026-04-27 10:09 48.93684 11.33308 7193 ft 137 kts 174°
2026-04-27 10:10 48.92736 11.33558 6918 ft 147 kts 191°
2026-04-27 10:10 48.91838 11.33500 7176 ft 124 kts 179°
2026-04-27 10:10 48.90947 11.33614 7059 ft 133 kts 176°
2026-04-27 10:10 48.90009 11.33779 7001 ft 132 kts 177°
2026-04-27 10:11 48.89141 11.33899 7119 ft 123 kts 178°
2026-04-27 10:11 48.88288 11.34023 7155 ft 122 kts 177°
2026-04-27 10:11 48.87445 11.34155 7221 ft 124 kts 178°
2026-04-27 10:11 48.86591 11.34371 7274 ft 126 kts 179°
2026-04-27 10:12 48.85686 11.34393 7224 ft 133 kts 176°
2026-04-27 10:12 48.84754 11.34554 7109 ft 136 kts 173°
2026-04-27 10:12 48.83871 11.34683 7243 ft 122 kts 181°
2026-04-27 10:12 48.83000 11.34766 7225 ft 128 kts 178°
2026-04-27 10:13 48.82094 11.34729 7185 ft 131 kts 186°
2026-04-27 10:13 48.81213 11.34813 7221 ft 131 kts 173°
2026-04-27 10:13 48.80317 11.35146 7139 ft 135 kts 164°
2026-04-27 10:13 48.79414 11.35328 7189 ft 129 kts 182°
2026-04-27 10:14 48.78497 11.35423 7128 ft 135 kts 178°
2026-04-27 10:14 48.77579 11.35534 7160 ft 130 kts 178°
2026-04-27 10:14 48.76693 11.35648 7206 ft 129 kts 179°
2026-04-27 10:14 48.75787 11.35769 7196 ft 132 kts 177°
2026-04-27 10:15 48.74879 11.35902 7262 ft 130 kts 177°
2026-04-27 10:15 48.73960 11.35976 7214 ft 132 kts 178°
2026-04-27 10:15 48.73042 11.36142 7139 ft 133 kts 177°
2026-04-27 10:15 48.72136 11.36286 7232 ft 128 kts 177°
2026-04-27 10:16 48.71234 11.36401 7215 ft 133 kts 177°
2026-04-27 10:16 48.70327 11.36520 7250 ft 129 kts 179°
2026-04-27 10:16 48.69426 11.36553 7212 ft 131 kts 183°
2026-04-27 10:16 48.68475 11.36565 7162 ft 137 kts 182°
2026-04-27 10:17 48.67542 11.36638 7279 ft 131 kts 173°
2026-04-27 10:17 48.66752 11.37384 7078 ft 144 kts 126°
2026-04-27 10:17 48.66161 11.38519 7055 ft 133 kts 130°
2026-04-27 10:17 48.65551 11.39566 6950 ft 133 kts 137°
2026-04-27 10:18 48.64872 11.40557 6759 ft 138 kts 139°
2026-04-27 10:18 48.64173 11.41562 6595 ft 137 kts 133°
2026-04-27 10:18 48.63573 11.42680 6486 ft 135 kts 134°
2026-04-27 10:18 48.62877 11.43650 6329 ft 137 kts 140°
2026-04-27 10:19 48.62233 11.44646 6203 ft 133 kts 130°
2026-04-27 10:19 48.61643 11.45734 6078 ft 135 kts 130°
2026-04-27 10:19 48.61010 11.46873 5741 ft 150 kts 130°
2026-04-27 10:19 48.60293 11.47995 5594 ft 143 kts 135°
2026-04-27 10:20 48.59603 11.49082 5237 ft 146 kts 135°
2026-04-27 10:20 48.58889 11.50165 4937 ft 147 kts 134°
2026-04-27 10:20 48.58185 11.51217 4783 ft 141 kts 138°
2026-04-27 10:20 48.57699 11.51855 4703 ft 134 kts 141°
2026-04-27 10:21 48.56671 11.53081 4151 ft 151 kts 143°
2026-04-27 10:21 48.56126 11.53693 4169 ft 137 kts 143°
2026-04-27 10:21 48.55359 11.54521 4037 ft 135 kts 148°
2026-04-27 10:21 48.54520 11.55233 3767 ft 136 kts 156°
2026-04-27 10:22 48.53738 11.55909 3603 ft 130 kts 132°
2026-04-27 10:22 48.53363 11.57043 3578 ft 117 kts 101°
2026-04-27 10:22 48.53353 11.58246 3597 ft 108 kts 90°
2026-04-27 10:22 48.53297 11.59419 3791 ft 116 kts 96°
2026-04-27 10:23 48.53209 11.60714 3761 ft 129 kts 94°
2026-04-27 10:23 48.53147 11.62045 3760 ft 126 kts 93°
2026-04-27 10:23 48.53092 11.63363 3784 ft 129 kts 92°
2026-04-27 10:23 48.53115 11.64692 3882 ft 124 kts 85°
2026-04-27 10:24 48.53247 11.66001 3871 ft 129 kts 80°
2026-04-27 10:24 48.53187 11.67308 3877 ft 126 kts 110°
2026-04-27 10:24 48.52706 11.68392 3958 ft 122 kts 127°
2026-04-27 10:24 48.52158 11.69442 4017 ft 129 kts 131°
2026-04-27 10:25 48.51549 11.70400 3965 ft 129 kts 134°
2026-04-27 10:25 48.50918 11.71388 3937 ft 126 kts 134°
2026-04-27 10:25 48.50299 11.72338 3880 ft 131 kts 137°
2026-04-27 10:25 48.49649 11.73259 3885 ft 129 kts 132°
2026-04-27 10:26 48.49048 11.74261 3866 ft 128 kts 130°
2026-04-27 10:26 48.48470 11.75316 3899 ft 131 kts 128°
2026-04-27 10:26 48.47924 11.76381 3980 ft 128 kts 126°
2026-04-27 10:26 48.47313 11.77469 3815 ft 138 kts 130°
2026-04-27 10:27 48.46673 11.78464 3792 ft 130 kts 145°
2026-04-27 10:27 48.45866 11.79053 3788 ft 126 kts 147°
2026-04-27 10:27 48.45132 11.79849 3773 ft 131 kts 145°
2026-04-27 10:27 48.44394 11.80580 3857 ft 126 kts 150°
2026-04-27 10:28 48.43541 11.80957 3788 ft 128 kts 174°
2026-04-27 10:28 48.42666 11.81189 3830 ft 128 kts 167°
2026-04-27 10:28 48.41764 11.81417 3751 ft 132 kts 174°
2026-04-27 10:28 48.40858 11.81600 3823 ft 129 kts 172°
2026-04-27 10:29 48.39969 11.81801 3778 ft 131 kts 174°
2026-04-27 10:29 48.39071 11.81928 3880 ft 127 kts 176°
2026-04-27 10:29 48.38234 11.81563 3773 ft 134 kts 227°
2026-04-27 10:29 48.37726 11.80463 3928 ft 125 kts 237°
2026-04-27 10:30 48.36999 11.79724 3841 ft 133 kts 194°
2026-04-27 10:30 48.36119 11.79406 3824 ft 130 kts 195°
2026-04-27 10:30 48.35226 11.79121 3774 ft 129 kts 192°
2026-04-27 10:30 48.34341 11.78949 3769 ft 129 kts 182°
2026-04-27 10:31 48.33449 11.79095 3761 ft 128 kts 173°
2026-04-27 10:31 48.32560 11.79285 3773 ft 126 kts 176°
2026-04-27 10:31 48.31676 11.79438 3807 ft 131 kts 172°
2026-04-27 10:31 48.30823 11.79719 3979 ft 120 kts 165°
2026-04-27 10:32 48.30005 11.80133 3889 ft 126 kts 159°
2026-04-27 10:32 48.29178 11.80637 3783 ft 135 kts 165°
2026-04-27 10:32 48.28283 11.80914 3927 ft 126 kts 171°
2026-04-27 10:32 48.27471 11.80585 3862 ft 135 kts 243°
2026-04-27 10:33 48.27168 11.79396 4212 ft 118 kts 249°
2026-04-27 10:33 48.26913 11.78140 4252 ft 126 kts 264°
2026-04-27 10:33 48.26551 11.77034 4252 ft 123 kts 235°
2026-04-27 10:33 48.26008 11.75974 4103 ft 128 kts 236°
2026-04-27 10:34 48.25511 11.74904 4082 ft 125 kts 238°
2026-04-27 10:34 48.24994 11.73829 4012 ft 129 kts 238°
2026-04-27 10:34 48.24580 11.72676 4035 ft 127 kts 249°
2026-04-27 10:34 48.24279 11.71427 4181 ft 121 kts 253°
2026-04-27 10:35 48.24011 11.70234 4177 ft 124 kts 256°
2026-04-27 10:35 48.23786 11.68954 4169 ft 128 kts 259°
2026-04-27 10:35 48.23526 11.67721 4358 ft 124 kts 243°
2026-04-27 10:35 48.22942 11.66705 4325 ft 131 kts 234°
2026-04-27 10:36 48.22314 11.65786 4287 ft 127 kts 216°
2026-04-27 10:36 48.21558 11.65101 4208 ft 127 kts 212°
2026-04-27 10:36 48.20782 11.64464 4119 ft 129 kts 210°
2026-04-27 10:36 48.19972 11.63939 4110 ft 126 kts 200°
2026-04-27 10:37 48.19158 11.63429 4025 ft 128 kts 211°
2026-04-27 10:37 48.18367 11.62827 3957 ft 127 kts 209°
2026-04-27 10:37 48.17570 11.62212 3837 ft 130 kts 211°
2026-04-27 10:37 48.16861 11.61402 3803 ft 127 kts 222°
2026-04-27 10:38 48.16141 11.60621 3767 ft 126 kts 215°
2026-04-27 10:38 48.15475 11.59742 3639 ft 130 kts 234°
2026-04-27 10:38 48.14895 11.58736 3632 ft 125 kts 224°
2026-04-27 10:38 48.14303 11.57825 3628 ft 125 kts 234°
2026-04-27 10:39 48.13806 11.56717 3632 ft 125 kts 239°
2026-04-27 10:39 48.13240 11.55724 3547 ft 131 kts 219°
2026-04-27 10:39 48.12468 11.55000 3514 ft 129 kts 199°
2026-04-27 10:39 48.11562 11.54897 3478 ft 131 kts 182°
2026-04-27 10:40 48.11130 11.54793 3480 ft 131 kts 197°
2026-04-27 10:40 48.10325 11.54355 3570 ft 125 kts 205°
2026-04-27 10:40 48.09753 11.53373 3369 ft 138 kts 259°
2026-04-27 10:40 48.09579 11.52111 3609 ft 117 kts 269°
2026-04-27 10:41 48.09525 11.50823 3519 ft 130 kts 261°
2026-04-27 10:41 48.09094 11.49646 3589 ft 127 kts 231°
2026-04-27 10:41 48.08396 11.48868 3594 ft 133 kts 208°
2026-04-27 10:41 48.07560 11.48312 3606 ft 130 kts 204°
2026-04-27 10:42 48.06726 11.47809 3538 ft 130 kts 208°
2026-04-27 10:42 48.06025 11.46999 3529 ft 127 kts 229°
2026-04-27 10:42 48.05391 11.46055 3590 ft 125 kts 223°
2026-04-27 10:42 48.04754 11.45144 3482 ft 131 kts 230°
2026-04-27 10:43 48.04172 11.44134 3476 ft 126 kts 228°
2026-04-27 10:43 48.03508 11.43234 3370 ft 131 kts 220°
2026-04-27 10:43 48.02729 11.42534 3418 ft 133 kts 212°
2026-04-27 10:43 48.02103 11.41561 3474 ft 132 kts 253°
2026-04-27 10:44 48.02307 11.40425 3775 ft 109 kts 309°
2026-04-27 10:44 48.02724 11.39439 3701 ft 111 kts 302°
2026-04-27 10:44 48.03126 11.38468 3726 ft 105 kts 311°
2026-04-27 10:44 48.03559 11.37707 3684 ft 92 kts 314°
2026-04-27 10:45 48.03991 11.36984 3502 ft 95 kts 315°
2026-04-27 10:45 48.04422 11.36248 3343 ft 93 kts 313°
2026-04-27 10:45 48.04865 11.35545 3183 ft 93 kts 318°
2026-04-27 10:45 48.05296 11.34927 3119 ft 87 kts 321°
2026-04-27 10:46 48.05769 11.34304 3006 ft 87 kts 323°
2026-04-27 10:46 48.06258 11.33673 2975 ft 97 kts 321°
2026-04-27 10:46 48.06492 11.32817 2943 ft 98 kts 256°
2026-04-27 10:46 48.06108 11.32037 2981 ft 93 kts 229°
2026-04-27 10:47 48.05694 11.31303 3169 ft 92 kts 237°
2026-04-27 10:47 48.05268 11.30478 3270 ft 101 kts 229°
2026-04-27 10:47 48.04803 11.29683 3356 ft 102 kts 230°
2026-04-27 10:47 48.04319 11.28910 3355 ft 98 kts 225°
2026-04-27 10:48 48.03853 11.28309 3440 ft 84 kts 220°
2026-04-27 10:48 48.03343 11.27799 3401 ft 97 kts 212°
2026-04-27 10:48 48.02761 11.27291 3439 ft 96 kts 229°
2026-04-27 10:48 48.02568 11.26369 3401 ft 95 kts 273°
2026-04-27 10:49 48.02773 11.25472 3434 ft 94 kts 319°
2026-04-27 10:49 48.03201 11.24735 3472 ft 94 kts 311°
2026-04-27 10:49 48.03605 11.23974 3320 ft 97 kts 317°
2026-04-27 10:49 48.04210 11.23671 3031 ft 96 kts
2026-04-27 10:50 48.04796 11.24035 2874 ft 90 kts 29°
2026-04-27 10:50 48.05329 11.24567 2655 ft 91 kts 37°
2026-04-27 10:50 48.05797 11.25159 2466 ft 85 kts 40°
2026-04-27 10:50 48.06249 11.25718 2351 ft 81 kts 40°
2026-04-27 10:51 48.06665 11.26283 2220 ft 81 kts 41°
2026-04-27 10:51 48.07074 11.26837 2087 ft 80 kts 45°
2026-04-27 10:51 48.07474 11.27395 1966 ft 76 kts 43°
2026-04-27 10:51 48.07797 11.27841 1936 ft 51 kts 43°
2026-04-27 10:52 48.07983 11.28091 1928 ft 28 kts 40°
2026-04-27 10:52 48.08101 11.28244 1923 ft 14 kts 38°
2026-04-27 10:52 48.08176 11.28228 1922 ft 13 kts 315°
2026-04-27 10:52 48.08242 11.28123 1923 ft 15 kts 313°
2026-04-27 10:53 48.08315 11.28065 1922 ft 12 kts 42°
2026-04-27 10:53 48.08468 11.28276 1916 ft 18 kts 44°
2026-04-27 10:53 48.08570 11.28414 1904 ft 21 kts 41°
2026-04-27 10:54 48.08681 11.28553 1902 ft 15 kts 13°
2026-04-27 10:54 48.08765 11.28486 1908 ft 13 kts 330°
2026-04-27 10:54 48.08826 11.28463 1907 ft 9 kts 48°
2026-04-27 10:54 48.08871 11.28541 1905 ft 12 kts 15°
2026-04-27 10:55 48.08880 11.28603 1898 ft 0 kts 167°